Regional Weather Roundup
Issued by NWS Charleston, SC

Current Version | Previous Version | Text Only | Print | Product List | Glossary Off
Versions: 1 2 3 4 5 6 7 8 9 10 11 12 13 14 15 16 17 18 19 20 21 22 23 24 25 26 27 28 29 30 31 32 33 34 35 36 37 38 39 40 41 42 43 44 45 46 47 48 49 50

000
ASUS42 KCHS 221125
RWRCHS

REGIONAL WEATHER ROUNDUP
NATIONAL WEATHER SERVICE CHARLESTON SC
600 AM EST MON DEC 22 2014

NOTE: "FAIR" INDICATES FEW OR NO CLOUDS BELOW 12,000 FEET WITH NO
SIGNIFICANT WEATHER AND/OR OBSTRUCTIONS TO VISIBILITY.

NOT ALL STATIONS ARE QUALITY CONTROLLED BY THE NATIONAL
WEATHER SERVICE. USE DATA WITH CAUTION...ESPECIALLY
DEWPOINT OBSERVATIONS.

SCZ027-030-031-034>040-042>050-221200-
...SOUTHEAST SOUTH CAROLINA...

CITY           SKY/WX    TMP DP  RH WIND       PRES   REMARKS
N CHARLESTON   CLOUDY    46  46 100 N7        30.05R FOG
WATERFRONT PRK NOT AVBL
MOUNT PLEASANT FOG       46  46 100 N6        30.05S VSB 1/2
PINOPOLIS        N/A     46  45  93 N12       29.98R
MONCKS CORNER    N/A     46  43  87 NE5       30.05S
SUMMERVILLE    CLOUDY    45  45 100 N7        30.06S
BEAUFORT MCAS  CLOUDY    48  47  96 N9        30.04R FOG
BEAUFORT ARPT  CLOUDY    46  46 100 N7        30.04R FOG
HILTON HEAD IS NOT AVBL
WALTERBORO     CLOUDY    46 N/A N/A N5        30.07R
ALLENDALE      LGT RAIN  46  46 100 NE3       30.05S

...SOUTHERN MIDLANDS AND PEE DEE...

CITY           SKY/WX    TMP DP  RH WIND       PRES   REMARKS
GEORGETOWN     NOT AVBL
KINGSTREE      NOT AVBL
ORANGEBURG     CLOUDY    44  41  89 NE8       30.07R
BARNWELL       CLOUDY    45  45 100 NE9       30.07R
AIKEN          CLOUDY    43  43 100 NE12      30.09S FOG
MANNING        NOT AVBL
COLUMBIA       CLOUDY    45  43  93 NE6       30.09R FOG
SUMTER         CLOUDY    43  41  93 NE10      30.07R
FLORENCE       LGT RAIN  43  41  93 N12       30.08R
MYRTLE BEACH   CLOUDY    46  43  87 N12       30.05S
N MYRTLE BEACH CLOUDY    45  43  93 N7        30.03F FOG

$$

GAZ063-065-086>088-099>101-113>116-118-119-134>141-150-221200-
...SOUTHEAST GEORGIA...

CITY           SKY/WX    TMP DP  RH WIND       PRES   REMARKS
SAVANNAH ARPT  FOG       48  46  93 N6        30.05R VSB 1/2
HUNTER AAF     CLOUDY    48  48 100 NE5       30.02R FOG
FORT STEWART   CLOUDY    48  46  93 N5        30.02R FOG
STATESBORO     DRIZZLE   47  47 100 N3        30.05R
SYLVANIA       DRIZZLE   46  46 100 NE5       30.06R
CLAXTON        CLOUDY    46  46 100 NE3       30.05R FOG

...CSRA...CENTRAL AND FAR SOUTHEAST GEORGIA...

CITY           SKY/WX    TMP DP  RH WIND       PRES   REMARKS
THOMSON        CLOUDY    47  47 100 NE6       30.10S
AUGUSTA-BUSH   LGT RAIN  46  45  96 NE6       30.07R FOG
AUGUSTA-DANIEL CLOUDY    47  45  93 NE8       30.06R FOG
SWAINSBORO     DRIZZLE  N/A N/A N/A CALM      30.05R
VIDALIA        CLOUDY    46  46 100 NE5       30.04R FOG
EASTMAN        CLOUDY    48  48 100 E3        30.05S FOG
HAZLEHURST     FOG       49  49 100 N5        30.02R VSB 1/2
ALMA           FOG       48  48 100 VRB3      30.00F VSB 3/4
WAYCROSS       FOG       53  53 100 NE3       30.01R VSB 1/2
JESUP          FOG       52  50  93 CALM      30.02R VSB 3/4
BAXLEY         LGT RAIN  50  48  93 NE5       30.01S VSB 1/2
BRUNSWICK      CLOUDY    54  52  94 CALM      30.03R
SAINT SIMONS   CLOUDY    55  54  96 N3        30.01S FOG

$$

SCZ027-028-034-036>038-045-046-048>050-GAZ119-141-221200-
...LAKE AND SUPPLEMENTAL COASTAL OBSERVATIONS...

STATION/POSITION TIME  TEMP    WIND        PRES    WAVE   SWELL
                       AIR SEA DIR/SP/G            HT/PER HT/PER/DIR
                 (UTC) (F)     (DEG/KT/KT) (MB)    (FT/S) (FT/S/D)
UPR LAKE MARION  NOT AVBL
WINYAH BAY       1100   45     340/  5     1016.0S
LAKE MURRAY      1000   44      30/  3/  6 1017.9F
ACE BASIN NERRS  1100   46      30/  3     1016.0S
FORT PULASKI     1100   49 56  330/ 12/ 14 1017.3R
SAPELO ISLAND    1100   55     360/  6     1016.0R

$$

ANZ835-935-AMZ111-154-330-350-352-354-370-450-454-472-221200-
...C-MAN AND BUOY OBSERVATIONS...

STATION/POSITION TIME  TEMP    WIND        PRES    WAVE   SWELL
                       AIR SEA DIR/SP/G            HT/PER HT/PER/DIR
                 (UTC) (F)     (DEG/KT/KT) (MB)    (FT/S) (FT/S/D)
BUOY 41004       1100   66 73  360/ 12/ 16 1015.4R   6/ 9   5/ 9
BUOY 41008       1100   59 59   90/ 12/ 12 1015.1F   4/ 8   3/ 80/ 8
FOLLY BEACH CMAN 1100   47     350/ 10/ 12 1017.5R
CAPERS NEARSHORE 1000   48      50/ 12/ 14   N/A
FRIPP NEARSHORE  NOT AVBL


STATION/POSITION TIME  TEMP    WIND        PRES    WAVE   SWELL
                       AIR SEA DIR/SP/G            HT/PER HT/PER/DIR
                 (UTC) (F)     (DEG/KT/KT) (MB)    (FT/S) (FT/S/D)
5E ST. MARYS GA  1100      61                N/A     4/ 8
FRYING PAN BUOY  1100   62 70   20/ 17/ 23 1016.0R   7/ 8   2/110/11
BUOY 41025       1100   65                 1017.3F   8/ 7
CAPE LOOKOUT NC  1100   50      10/ 14/ 17 1016.9R
BUOY 41002       1000   73 72  220/ 10/ 14 1017.3    5/ 7   5/ 90/ 7
BUOY 41010       1100   74 77  220/ 12/ 16 1017.6R   3/ 7   3/ 70/ 7
ST AUGUSTINE FL  1100   64     150/  6/  7 1016.7F


$$



USA.gov is the U.S. government's official web portal to all federal, state and local government web resources and services.